Home   Weather   Bucharest   Past weeks

Flag for Romania Past Weather in Bucharest, Romania — Yesterday and Last 2 Weeks

Now
55 °F

Sprinkles. Fog.


Feels Like: 55 °F
Forecast: 51 / 65 °F
Wind: 5 mph from Northeast

Location: Bucharest / Imh

Current Time: Sep 26, 2016 at 6:46:54 PM

Latest Report: Sep 26, 2016 at 5:30 PM


Visibility: 2 mi

Pressure: 30.18 "Hg

Humidity: 88%

Dew Point: 52 °F

Location of BucharestLocation

Past Weather in Bucharest — Graph

°F

Bucharest Temperature Yesterday

Maximum temperature yesterday: 59 °F (at 10:00 AM)
Minimum temperature yesterday: 52 °F (at 3:00 AM)
Average temperature yesterday: 56 °F

High & Low Weather Summary for the Past Weeks

 TemperatureHumidityPressure
High90 °F (Sep 17, 2:30 PM)100% (Sep 19, 5:30 AM)30.33 "Hg (Sep 19, 5:30 AM)
Low46 °F (Sep 22, 3:30 AM)27% (Sep 17, 4:30 PM)29.62 "Hg (Sep 19, 10:30 PM)
Average65 °F69%30.02 "Hg
* Reported Sep 11 5:00 PM — Sep 26 5:00 PM, Bucharest, Weather by CustomWeather, © 2016

Note: Actual official high and low records may vary slightly from our data, if they occured in-between our weather recording intervals... More about our weather records

Advertising

Bucharest Weather History for the Previous 24 Hours

Scroll right to see more
 ConditionsComfort  
Time TempWeatherWind HumidityBarometerVisibility
5:00 PM
Mon, Sep 26
57 °FSprinkles. Fog.6 mph88%30.18 "Hg2 mi
4:30 PM59 °FSprinkles. Scattered clouds.10 mph77%30.18 "HgN/A
4:00 PM63 °FPassing clouds.10 mph64%30.18 "HgN/A
3:30 PM64 °FScattered clouds.3 mph56%30.18 "HgN/A
3:00 PM64 °FScattered clouds.3 mph56%30.18 "HgN/A
2:00 PM63 °FSunny.3 mph64%30.18 "Hg10 mi
1:30 PM63 °FPassing clouds.5 mph68%30.18 "HgN/A
1:00 PM61 °FScattered clouds.3 mph68%30.18 "HgN/A
12:30 PM61 °FSunny.2 mph68%30.18 "Hg10 mi
12:00 PM59 °FPassing clouds.5 mph72%30.18 "HgN/A
11:30 AM59 °FPassing clouds.3 mph77%30.18 "HgN/A
11:00 AM57 °FPassing clouds.2 mph82%30.18 "HgN/A
10:30 AM55 °FSunny.1 mph88%30.18 "Hg10 mi
10:00 AM55 °FSunny.2 mph94%30.18 "Hg10 mi
9:30 AM54 °FSunny.3 mph94%30.15 "Hg10 mi
9:00 AM52 °FScattered clouds.1 mph100%30.15 "HgN/A
8:30 AM52 °FPassing clouds.No wind94%30.15 "HgN/A
8:00 AM52 °FSunny.No wind94%30.15 "Hg10 mi
7:30 AM52 °FSunny.2 mph94%30.12 "Hg10 mi
7:00 AM52 °FClear.3 mph94%30.12 "Hg10 mi
6:30 AM52 °FClear.2 mph94%30.12 "Hg10 mi
6:00 AM52 °FClear.2 mph94%30.12 "Hg10 mi
5:30 AM52 °FClear.2 mph94%30.12 "Hg10 mi
5:00 AM52 °FPassing clouds.3 mph94%30.12 "HgN/A
4:30 AM52 °FClear.1 mph100%30.12 "Hg10 mi
4:00 AM54 °FClear.1 mph94%30.12 "Hg10 mi
3:30 AM54 °FPassing clouds.No wind94%30.12 "HgN/A
3:00 AM54 °FPassing clouds.2 mph94%30.12 "HgN/A
2:30 AM54 °FLight rain. Passing clouds.1 mph94%30.12 "HgN/A
2:00 AM54 °FLight rain. Passing clouds.No wind94%30.15 "HgN/A
1:30 AM54 °FLight rain. Passing clouds.No wind94%30.12 "HgN/A
1:00 AM54 °FSprinkles. Passing clouds.1 mph94%30.12 "HgN/A
12:30 AM54 °FSprinkles. Passing clouds.3 mph94%30.15 "HgN/A
12:00 AM54 °FPassing clouds.2 mph94%30.12 "HgN/A
11:30 PM
Sun, Sep 25
54 °FPassing clouds.2 mph100%30.12 "HgN/A
11:00 PM55 °FSprinkles. Passing clouds.2 mph88%30.12 "HgN/A
10:30 PM55 °FPassing clouds.3 mph94%30.12 "HgN/A
10:00 PM55 °FClear.2 mph94%30.12 "Hg10 mi
9:30 PM55 °FClear.2 mph94%30.12 "Hg10 mi
9:00 PM55 °FPassing clouds.6 mph94%30.12 "HgN/A
8:30 PM55 °FPassing clouds.5 mph94%30.12 "HgN/A
8:00 PM57 °FSprinkles. Passing clouds.6 mph94%30.12 "Hg4 mi
7:30 PM57 °FSprinkles. Passing clouds.3 mph94%30.12 "Hg4 mi
7:00 PM57 °FSprinkles. Passing clouds.3 mph94%30.12 "Hg4 mi
6:30 PM57 °FSprinkles. Fog.2 mph94%30.12 "Hg3 mi
6:00 PM57 °FSprinkles. Fog.5 mph94%30.12 "Hg3 mi
Weather by CustomWeather, © 2016

See weather overviewHow to use our weather pages